Location: Erp
(42.9417°N, 1.2009°E)
Time: 13:43:54
(UTC+00:00)

SJ-7 - Visible Passes

Search period start: 13 April 2026 00:00
Search period end: 23 April 2026 00:00
Orbit: 494 x 514 km, 97.7° (Epoch: 13 April)

Date Brightness Start Highest point End Pass type
(mag) Time Alt. Az. Time Alt. Az. Time Alt. Az.
13 Apr 7.1 19:45:45 10° SW 19:48:10 16° W 19:50:36 10° NW visible
14 Apr 6.5 19:26:26 10° SSW 19:29:37 26° W 19:32:50 10° NW visible
15 Apr 5.5 19:07:31 10° S 19:11:06 44° W 19:14:44 10° NNW visible
18 Apr 7.1 19:47:21 10° SW 19:49:44 16° W 19:52:07 10° NW visible
19 Apr 6.5 19:27:57 10° SSW 19:31:08 26° W 19:34:20 10° NW visible
20 Apr 5.5 19:08:59 10° S 19:12:34 43° W 19:16:11 10° NNW visible
